DW2753 Victoria BC CA current weather conditions

sailwx.info

Wind from 170

Air temperature 12.8° C
Dewpoint 10.8° C

Last reported at 2019-Jun-18 12:07 UTC.
Time now 2019-Jun-18 12:48 UTC

Location: N 48°30' W 123°24'.
View on Google Maps.

See reports from other nearby stations

  
Tides and Currents Weather Stations Pressure Air Temp Water Temp Dewpoint Dewpoint Depression Visibility Wind Speed Wind Dir Waves Ship Positions
date/time (UTC)wind fromknots sea level pressurealtimeterstation pressurevisibilityair tempwater tempwave heightnotes
2019-Jun-18 12:07 170 12.8
2019-Jun-18 12:02 170 12.8
2019-Jun-18 11:57 170 12.8
2019-Jun-18 11:52 170 12.8
2019-Jun-18 11:47 170 12.8
2019-Jun-18 11:42 170 12.8
2019-Jun-18 11:37 170 12.8
2019-Jun-18 11:32 170 12.8
2019-Jun-18 11:27 170 12.8
2019-Jun-18 11:22 170 12.8
2019-Jun-18 11:17 170 12.8
2019-Jun-18 11:12 170 12.8
2019-Jun-18 11:07 170 12.8
2019-Jun-18 11:02 170 13.3
2019-Jun-18 10:57 170 13.3
2019-Jun-18 10:52 170 13.3
2019-Jun-18 10:47 170 13.3
2019-Jun-18 10:42 170 0 gusting 3 13.3
2019-Jun-18 10:37 204 0 gusting 2 13.3
2019-Jun-18 10:32 230 13.3
2019-Jun-18 10:27 249 13.3
2019-Jun-18 10:22 253 13.3
2019-Jun-18 10:17 220 13.3
2019-Jun-18 10:12 234 13.3
2019-Jun-18 10:07 235 13.3
2019-Jun-18 10:02 235 13.3
2019-Jun-18 09:57 235 13.3
2019-Jun-18 09:52 235 13.3
2019-Jun-18 09:47 210 13.9
2019-Jun-18 09:42 210 13.9
2019-Jun-18 09:37 210 13.9
2019-Jun-18 09:32 210 13.9
2019-Jun-18 09:27 246 0 gusting 3 13.9
2019-Jun-18 09:22 244 0 gusting 4 13.9
2019-Jun-18 09:17 253 0 gusting 4 13.9
2019-Jun-18 09:12 236 0 gusting 4 13.9
2019-Jun-18 09:07 233 1 gusting 7 13.9
2019-Jun-18 09:02 257 1 gusting 7 14.4
2019-Jun-18 08:57 244 0 gusting 4 14.4
2019-Jun-18 08:52 276 0 gusting 2 14.4
2019-Jun-18 08:47 223 0 gusting 3 14.4
2019-Jun-18 08:42 245 1 gusting 6 14.4
2019-Jun-18 08:37 262 1 gusting 6 14.4
2019-Jun-18 08:32 236 1 gusting 5 14.4
2019-Jun-18 08:27 251 1 gusting 6 15.0
2019-Jun-18 08:22 235 1 gusting 6 15.0
2019-Jun-18 08:17 291 0 gusting 4 15.0
2019-Jun-18 08:12 232 2 gusting 6 15.0
2019-Jun-18 08:07 265 3 gusting 7 15.0
2019-Jun-18 08:02 233 4 gusting 8 15.0
2019-Jun-18 07:57 246 3 gusting 8 15.6
2019-Jun-18 07:52 236 2 gusting 6 15.6
2019-Jun-18 07:47 212 1 gusting 6 15.6
2019-Jun-18 07:42 227 1 gusting 6 15.6
2019-Jun-18 07:37 231 1 gusting 6 15.6
2019-Jun-18 07:32 260 1 gusting 5 15.6
2019-Jun-18 07:27 218 1 gusting 5 15.6
2019-Jun-18 07:22 183 1 gusting 6 16.1
2019-Jun-18 07:17 134 1 gusting 6 16.1
2019-Jun-18 07:12 237 0 gusting 5 16.1
2019-Jun-18 07:07 179 1 gusting 6 16.1
2019-Jun-18 07:02 215 1 gusting 6 16.1
2019-Jun-18 06:57 170 1 gusting 6 16.1
2019-Jun-18 06:52 193 0 gusting 4 16.1
2019-Jun-18 06:47 058 0 gusting 3 16.1
2019-Jun-18 06:42 054 0 gusting 2 16.1
2019-Jun-18 06:37 042 16.1
2019-Jun-18 06:32 229 16.1
2019-Jun-18 06:27 201 16.1
2019-Jun-18 06:22 085 16.1
2019-Jun-18 06:17 085 16.7
2019-Jun-18 06:12 085 16.7
2019-Jun-18 06:07 085 16.7
2019-Jun-18 06:02 086 0 gusting 2 16.7
2019-Jun-18 05:57 085 0 gusting 2 17.2
2019-Jun-18 05:52 121 0 gusting 1 17.8
2019-Jun-18 05:47 218 17.8
2019-Jun-18 05:42 217 17.8
2019-Jun-18 05:37 270 17.8
2019-Jun-18 05:32 271 0 gusting 2 17.8
2019-Jun-18 05:27 277 1 gusting 6 17.8
2019-Jun-18 05:22 243 1 gusting 6 17.8
2019-Jun-18 05:17 239 0 gusting 5 17.8
2019-Jun-18 05:12 237 17.8
2019-Jun-18 05:07 199 18.3
2019-Jun-18 05:02 199 18.3
2019-Jun-18 04:57 199 18.3
2019-Jun-18 04:52 168 0 gusting 1 18.3
2019-Jun-18 04:47 168 0 gusting 2 18.3
2019-Jun-18 04:42 168 0 gusting 2 18.9
2019-Jun-18 04:37 168 0 gusting 2 18.9
2019-Jun-18 04:32 170 19.4
2019-Jun-18 04:27 175 19.4
2019-Jun-18 04:22 212 19.4
2019-Jun-18 04:17 212 20.0
2019-Jun-18 04:12 236 20.0
2019-Jun-18 04:07 236 0 gusting 2 20.0
2019-Jun-18 04:02 236 0 gusting 3 20.6
2019-Jun-18 03:57 247 0 gusting 4 20.6
2019-Jun-18 03:52 222 0 gusting 4 20.6
2019-Jun-18 03:47 231 0 gusting 5 20.6
2019-Jun-18 03:42 222 0 gusting 5 20.6
2019-Jun-18 03:37 169 0 gusting 6 20.6
2019-Jun-18 03:32 207 0 gusting 6 20.6
2019-Jun-18 03:27 133 21.1
2019-Jun-18 03:22 167 21.1
2019-Jun-18 03:17 167 21.1
2019-Jun-18 03:12 166 0 gusting 3 21.1
2019-Jun-18 03:07 207 21.1
2019-Jun-18 03:02 153 21.7
2019-Jun-18 02:57 153 0 gusting 2 21.7
2019-Jun-18 02:52 172 0 gusting 2 21.7
2019-Jun-18 02:47 045 0 gusting 2 22.2
2019-Jun-18 02:42 036 1 gusting 6 22.2
2019-Jun-18 02:37 277 2 gusting 6 22.2
2019-Jun-18 02:32 253 2 gusting 6 22.2
2019-Jun-18 02:27 253 4 gusting 9 22.2
2019-Jun-18 02:22 284 3 gusting 9 22.2
2019-Jun-18 02:17 260 3 gusting 8 22.2
2019-Jun-18 02:12 269 4 gusting 8 22.8
2019-Jun-18 02:07 258 3 gusting 7 22.8
2019-Jun-18 02:02 266 2 gusting 9 22.8
2019-Jun-18 01:57 232 3 gusting 9 22.8
2019-Jun-18 01:52 194 3 gusting 10 23.3
2019-Jun-18 01:47 237 3 gusting 10 23.3
2019-Jun-18 01:42 238 3 gusting 11 23.3
2019-Jun-18 01:37 273 3 gusting 11 23.3
2019-Jun-18 01:32 279 3 gusting 11 23.9
2019-Jun-18 01:27 242 3 gusting 11 23.9
2019-Jun-18 01:22 266 2 gusting 8 23.9
2019-Jun-18 01:17 233 2 gusting 8 23.9
2019-Jun-18 01:12 263 2 gusting 6 24.4
2019-Jun-18 01:07 197 2 gusting 6 24.4
2019-Jun-18 01:02 233 3 gusting 8 24.4
2019-Jun-18 00:57 245 3 gusting 8 24.4
2019-Jun-18 00:52 248 2 gusting 6 24.4
2019-Jun-18 00:47 229 2 gusting 6 25.0
2019-Jun-18 00:42 205 2 gusting 6 25.0
2019-Jun-18 00:37 169 2 gusting 8 25.0
2019-Jun-18 00:32 237 2 gusting 8 25.0
2019-Jun-18 00:27 183 2 gusting 9 25.0
2019-Jun-18 00:22 260 2 gusting 9 25.0
2019-Jun-18 00:17 241 1 gusting 6 25.0
2019-Jun-18 00:12 235 1 gusting 6 25.0
2019-Jun-18 00:07 237 0 gusting 4 25.0
2019-Jun-18 00:02 224 0 gusting 4 24.4
2019-Jun-17 23:57 053 0 gusting 2 24.4
2019-Jun-17 23:52 004 0 gusting 6 24.4
2019-Jun-17 23:47 022 1 gusting 6 25.0
2019-Jun-17 23:42 306 2 gusting 6 25.0
2019-Jun-17 23:37 318 2 gusting 7 25.6
2019-Jun-17 23:32 245 2 gusting 7 25.6
2019-Jun-17 23:27 235 2 gusting 8 25.6
2019-Jun-17 23:22 264 2 gusting 9 25.6
2019-Jun-17 23:17 158 1 gusting 9 25.0
2019-Jun-17 23:12 277 1 gusting 5 24.4
2019-Jun-17 23:07 043 0 gusting 3 24.4
2019-Jun-17 23:02 033 0 gusting 4 24.4
2019-Jun-17 22:57 060 1 gusting 4 24.4
2019-Jun-17 22:52 049 0 gusting 4 24.4
2019-Jun-17 22:47 037 0 gusting 4 25.0
2019-Jun-17 22:42 237 1 gusting 4 25.0
2019-Jun-17 22:37 237 1 gusting 6 25.0
2019-Jun-17 22:32 233 1 gusting 6 24.4
2019-Jun-17 22:27 162 1 gusting 6 24.4
2019-Jun-17 22:22 193 1 gusting 6 24.4
2019-Jun-17 22:17 214 1 gusting 6 24.4
2019-Jun-17 22:12 266 0 gusting 4 24.4
2019-Jun-17 22:07 108 0 gusting 4 23.9
2019-Jun-17 22:02 118 1 gusting 4 23.9
2019-Jun-17 21:57 073 1 gusting 4 23.9
2019-Jun-17 21:52 114 0 gusting 4 23.9
2019-Jun-17 21:47 141 0 gusting 3 23.9
2019-Jun-17 21:42 095 0 gusting 3 23.9
2019-Jun-17 21:37 222 0 gusting 3 23.3
2019-Jun-17 21:32 127 1 gusting 4 23.3
2019-Jun-17 21:27 110 1 gusting 6 23.3
2019-Jun-17 21:22 093 0 gusting 6 23.3
2019-Jun-17 21:17 135 1 gusting 4 23.3
2019-Jun-17 21:12 208 2 gusting 5 22.8
2019-Jun-17 21:07 118 2 gusting 5 22.8
2019-Jun-17 21:02 093 1 gusting 5 23.3
2019-Jun-17 20:57 100 0 gusting 5 23.3
2019-Jun-17 20:52 143 0 gusting 4 23.3
2019-Jun-17 20:47 231 0 gusting 4 23.3
2019-Jun-17 20:42 100 0 gusting 4 22.8
2019-Jun-17 20:37 125 1 gusting 4 22.8
2019-Jun-17 20:32 182 1 gusting 3 22.8
2019-Jun-17 20:27 194 0 gusting 3 22.8
2019-Jun-17 20:22 138 0 gusting 5 22.8
2019-Jun-17 20:17 145 1 gusting 5 22.8
2019-Jun-17 20:12 134 1 gusting 4 22.8
2019-Jun-17 20:07 082 1 gusting 5 22.8
2019-Jun-17 20:02 063 1 gusting 5 22.8
2019-Jun-17 19:57 223 0 gusting 5 23.3
2019-Jun-17 19:52 204 0 gusting 4 22.8
2019-Jun-17 19:47 141 1 gusting 6 22.8
2019-Jun-17 19:42 284 1 gusting 6 22.2
2019-Jun-17 19:36 108 1 gusting 4 22.2
2019-Jun-17 19:32 235 1 gusting 5 22.2
2019-Jun-17 19:27 087 1 gusting 5 21.7
2019-Jun-17 19:21 105 1 gusting 5 21.7
2019-Jun-17 19:16 102 1 gusting 5 21.7
2019-Jun-17 19:11 126 0 gusting 3 21.7
2019-Jun-17 19:06 085 0 gusting 2 21.7
2019-Jun-17 19:01 104 1 gusting 5 21.7
2019-Jun-17 18:56 073 2 gusting 5 21.1
2019-Jun-17 18:51 093 1 gusting 5 21.1
2019-Jun-17 18:46 102 1 gusting 5 21.1
2019-Jun-17 18:42 095 0 gusting 4 21.7
2019-Jun-17 18:37 087 0 gusting 4 21.7
2019-Jun-17 18:31 109 0 gusting 3 21.7
2019-Jun-17 18:26 124 0 gusting 3 21.1
2019-Jun-16 23:01 227 1 gusting 4 24.4
2019-Jun-16 22:56 118 1 gusting 4 24.4
2019-Jun-16 22:51 104 0 gusting 3 24.4
2019-Jun-16 22:46 087 0 gusting 2 24.4
2019-Jun-16 22:41 083 24.4
2019-Jun-16 22:36 146 0 gusting 3 23.9
2019-Jun-16 22:31 146 0 gusting 5 23.9
2019-Jun-16 22:26 187 0 gusting 5 23.9
2019-Jun-16 22:21 052 0 gusting 3 23.3
2019-Jun-16 22:16 052 0 gusting 3 22.8
2019-Jun-16 22:11 031 0 gusting 3 22.2
2019-Jun-16 22:06 077 0 gusting 2 22.8
2019-Jun-16 22:01 163 0 gusting 2 22.8
2019-Jun-16 21:56 093 0 gusting 2 22.2
2019-Jun-16 21:51 071 0 gusting 2 21.7
2019-Jun-16 21:46 070 0 gusting 2 21.7
2019-Jun-16 21:41 068 21.7
2019-Jun-16 21:36 077 0 gusting 1 21.1
2019-Jun-16 21:31 077 0 gusting 2 21.1
2019-Jun-16 21:26 083 0 gusting 5 21.1
2019-Jun-16 21:21 068 0 gusting 5 21.7
2019-Jun-16 21:16 160 0 gusting 2 21.7
2019-Jun-16 21:11 089 0 gusting 4 21.7
2019-Jun-16 21:06 212 0 gusting 4 21.1
2019-Jun-16 21:01 133 1 gusting 4 21.1
2019-Jun-16 20:56 189 1 gusting 4 21.1
2019-Jun-16 20:51 228 1 gusting 5 21.1
2019-Jun-16 20:46 096 1 gusting 6 21.1
2019-Jun-16 20:41 192 1 gusting 6 20.6
2019-Jun-16 20:36 102 2 gusting 6 21.1
2019-Jun-16 20:31 106 2 gusting 6 21.1
2019-Jun-16 20:26 101 3 gusting 6 21.1
2019-Jun-16 20:20 101 2 gusting 6 21.7
2019-Jun-16 20:15 107 1 gusting 5 21.7
2019-Jun-16 20:11 108 1 gusting 4 21.7
2019-Jun-16 20:05 187 1 gusting 4 21.7
2019-Jun-16 20:00 114 0 gusting 3 21.7
2019-Jun-16 19:55 133 1 gusting 3 21.7
2019-Jun-16 19:50 150 1 gusting 4 21.7
2019-Jun-16 19:45 116 1 gusting 4 21.7
2019-Jun-16 19:40 102 1 gusting 4 21.7
2019-Jun-16 19:35 184 0 gusting 3 22.2
2019-Jun-16 19:30 170 1 gusting 6 22.2
2019-Jun-16 19:25 223 0 gusting 6 22.2
2019-Jun-16 19:20 293 0 gusting 4 21.7
2019-Jun-16 19:15 089 0 gusting 4 21.7
2019-Jun-16 19:10 132 0 gusting 2 21.7
2019-Jun-16 19:05 164 0 gusting 3 21.7
2019-Jun-16 19:00 112 0 gusting 3 21.1
2019-Jun-16 18:55 112 0 gusting 2 21.1
2019-Jun-16 18:50 103 0 gusting 4 20.6
2019-Jun-16 18:45 097 0 gusting 4 20.6
2019-Jun-16 18:40 116 0 gusting 4 20.6
2019-Jun-16 18:35 090 1 gusting 5 20.0
2019-Jun-16 18:30 085 1 gusting 5 20.0
2019-Jun-16 18:25 094 1 gusting 5 20.6
2019-Jun-16 18:20 102 1 gusting 5 20.6
2019-Jun-16 18:15 061 0 gusting 3 20.6
2019-Jun-16 18:10 084 0 gusting 4 20.6
2019-Jun-16 18:05 085 0 gusting 4 20.0
2019-Jun-16 18:00 078 1 gusting 3 20.0
2019-Jun-16 17:55 080 1 gusting 3 20.0
2019-Jun-16 17:50 055 0 gusting 3 20.0
2019-Jun-16 17:45 093 0 gusting 4 20.0
2019-Jun-16 17:40 093 1 gusting 4 20.0
2019-Jun-16 17:35 075 1 gusting 4 20.0
2019-Jun-16 17:30 073 0 gusting 2 19.4
2019-Jun-16 17:25 039 0 gusting 2 20.0
2019-Jun-16 17:20 137 0 gusting 2 19.4
2019-Jun-16 17:15 158 19.4
2019-Jun-16 17:10 058 0 gusting 2 18.9
2019-Jun-16 17:05 051 0 gusting 2 18.9
2019-Jun-16 17:00 222 18.9
2019-Jun-16 16:55 244 18.9
2019-Jun-16 16:50 244 18.3
2019-Jun-16 16:45 249 17.8
2019-Jun-16 16:40 248 17.8
2019-Jun-16 16:35 249 17.2
2019-Jun-16 16:30 249 0 gusting 2 17.2
2019-Jun-16 16:25 251 0 gusting 2 16.7
2019-Jun-16 16:20 251 0 gusting 2 16.7
2019-Jun-16 16:15 204 16.7
2019-Jun-16 16:10 204 16.7
2019-Jun-16 16:05 204 0 gusting 2 16.7
2019-Jun-16 16:00 104 16.7
2019-Jun-16 15:55 205 16.1
2019-Jun-16 15:50 045 16.1
2019-Jun-16 15:45 039 15.6
2019-Jun-16 15:40 023 15.6
2019-Jun-16 15:35 178 15.0
2019-Jun-16 15:30 194 15.0
2019-Jun-16 15:25 195 14.4
2019-Jun-16 15:20 194 14.4
2019-Jun-16 15:15 194 14.4
2019-Jun-16 15:10 195 14.4
2019-Jun-16 15:05 195 14.4
2019-Jun-16 15:00 195 14.4
2019-Jun-16 14:55 195 14.4
2019-Jun-16 14:50 195 14.4
2019-Jun-16 14:45 195 14.4
2019-Jun-16 14:40 195 13.9
2019-Jun-16 14:35 194 13.9
2019-Jun-16 14:30 195 13.3
2019-Jun-16 14:25 195 13.3
2019-Jun-16 14:20 195 12.8
2019-Jun-16 14:15 195 12.2
2019-Jun-16 14:10 195 12.2
2019-Jun-16 14:05 195 11.7
2019-Jun-16 14:00 195 11.7
2019-Jun-16 13:55 194 11.7
2019-Jun-16 13:50 195 11.1
2019-Jun-16 13:45 194 11.1
2019-Jun-16 13:40 194 10.6
2019-Jun-16 13:35 195 10.6
2019-Jun-16 13:30 195 10.6
2019-Jun-16 13:25 195 10.6
2019-Jun-16 13:20 195 10.6
2019-Jun-16 13:15 195 10.0
2019-Jun-16 13:10 195 10.0
2019-Jun-16 13:05 195 10.0
2019-Jun-16 13:00 195 10.0
2019-Jun-16 12:55 194 10.0
2019-Jun-16 12:50 195 10.0
2019-Jun-16 12:45 195 10.0
2019-Jun-16 12:40 195 10.0
2019-Jun-16 12:35 194 9.4
2019-Jun-16 12:30 195 10.0
2019-Jun-16 12:25 195 9.4
2019-Jun-16 12:20 195 10.0
2019-Jun-16 12:15 195 10.0
2019-Jun-16 12:10 194 10.0
2019-Jun-16 12:05 195 10.0
2019-Jun-16 12:00 195 10.0